Regional Weather Roundup
Issued by NWS

Home | Current Version | Previous Version | Graphics & Text | Print | Product List | Glossary On
Versions: 1 2 3 4 5 6 7 8 9 10 11 12 13 14 15 16 17 18 19 20 21 22 23 24 25 26 27 28 29 30 31 32 33 34 35 36 37 38 39 40 41 42 43 44 45 46 47 48 49 50
000
ASUS45 KBOU 191907
RWRCO

WEATHER ROUNDUP FOR COLORADO
NATIONAL WEATHER SERVICE DENVER/BOULDER CO
1200 PM MST FRI DEC 19 2014

NOTE: "FAIR" INDICATES FEW OR NO CLOUDS BELOW 12000 FEET WITH NO
SIGNIFICANT WEATHER AND/OR OBSTRUCTIONS TO VISIBILITY.

COZ001>005-013-030-031-192000-
...NORTHWEST COLORADO...

CITY           SKY/WX    TMP DP  RH WIND       PRES   REMARKS
CRAIG          MOSUNNY   27  22  81 E3        30.22F
HAYDEN         CLOUDY    21  18  86 S3        30.21F
MEEKER         CLOUDY    26  22  84 SE6       30.23F WCI  19
MOUNT WERNER   NOT AVBL
STEAMBOAT SPGS CLOUDY    24  19  80 CALM      30.20F
WALDEN         SUNNY     25  18  74 S17G24    30.11F WCI  11
$$

COZ006>008-011-192000-
...WEST CENTRAL VALLEYS...

CITY           SKY/WX    TMP DP  RH WIND       PRES   REMARKS
GRAND JUNCTION MOSUNNY   35  29  78 CALM      30.26F
MONTROSE       MOSUNNY   38  23  55 VRB3      30.26F
EAGLE          MOSUNNY   30  23  74 CALM      30.23F
RIFLE          CLOUDY    32  28  85 W6        30.25F WCI  26
DELTA          PTSUNNY   40  29  65 CALM      30.26F
NUCLA          SUNNY     34  27  75 CALM      30.28F
$$

COZ017>023-064>068-192000-
...SOUTHWEST COLORADO...

CITY           SKY/WX    TMP DP  RH WIND       PRES   REMARKS
DURANGO        SUNNY     31  21  66 S5        30.21F WCI  26
CORTEZ         SUNNY     36  24  62 CALM      30.23F
PAGOSA SPRINGS SUNNY     30  17  57 S3        30.19F
TELLURIDE      NOT AVBL
WOLF CREEK PAS SUNNY     14  14 100 MISG      30.13F
$$

COZ009-010-012-014-032>034-037-058>063-192000-
...CENTRAL COLORADO...

CITY           SKY/WX    TMP DP  RH WIND       PRES   REMARKS
ASPEN          MOSUNNY   30  15  53 CALM      30.18F
BUENA VISTA    SUNNY     34   6  30 W13G20    30.10F WCI  25
COPPER MTN     CLOUDY    14   9  79 W14       30.10F WCI  -1
BERTHOUD PASS  CLOUDY     5   1  85 MISG      30.05F
COTTONWOOD PAS SUNNY     30   1  29 W15G24    30.09F WCI  19
GUNNISON       SUNNY     25  14  63 CALM      30.23F
KREMMLING      PTSUNNY   30  18  59 CALM      30.20F
LEADVILLE      MOSUNNY   21   6  52 NW9       30.11F WCI  11
MONARCH PASS   CLOUDY    10   7  85 MISG      30.19S
SALIDA         SUNNY     37  13  37 S9G17     30.18F
SUNLIGHT       LGT SNOW N/A N/A N/A CALM      30.17F
WILKERSON PASS SUNNY     19   5  53 NW13G18   30.06F WCI   7
$$

COZ069>075-192000-
...SAN LUIS VALLEY/SANGRE DE CRISTO MOUNTAINS...

CITY           SKY/WX    TMP DP  RH WIND       PRES   REMARKS
ALAMOSA        SUNNY     30  16  56 CALM      30.17F
LA VETA PASS   SUNNY     21  14  73 S16G24    30.06F HAZE    WCI   7
SAGUACHE       MOSUNNY   28  19  69 S8        30.16F WCI  20
$$

COZ035-036-038>040-192000-
...NORTHERN COLORADO FRONT RANGE...

CITY           SKY/WX    TMP DP  RH WIND       PRES   REMARKS
DENVER INTL AP MOSUNNY   43  14  31 VRB7      30.04F
DMNS CITY PARK   N/A     45  11  24 S8        30.04F
AURORA         MOSUNNY   42  14  32 SW8       30.05F
FRONT RANGE AP NOT AVBL
ERIE MUNI ARPT   N/A    N/A N/A N/A MISG        N/A
BOULDER MUN AP SUNNY     46  14  27 E5        30.01F
CENTENNIAL     MOSUNNY   40  12  32 SW7       30.05F
BROOMFIELD       N/A     45  14  29 SE7       30.04
FORT COLLINS   SUNNY     43  27  52 E9        30.04F
LONGMONT       SUNNY     50  14  23 SE6       30.04F
$$

COZ041-046-047-076>085-087-088-192000-
...PIKES PEAK/PALMER DIVIDE AND SOUTHERN FOOTHILLS...

CITY           SKY/WX    TMP DP  RH WIND       PRES   REMARKS
COLO. SPRINGS  MOSUNNY   43  11  27 VRB5      30.07F
A. F. ACADEMY  SUNNY     40  11  31 N8        30.05F
ELLICOTT       NOT AVBL
FALCON         SUNNY     40  15  35 SW3       30.07F
FORT CARSON    SUNNY     42  14  32 S2        30.06F
LIMON          SUNNY     40  26  57 VRB3      30.06F
MONUMENT HILL  SUNNY     34  12  40 SW3       30.05F
TRINIDAD       SUNNY     44  16  32 NW3       30.07F
$$

COZ042>045-048>051-090-091-192000-
...NORTHEAST COLORADO...

CITY           SKY/WX    TMP DP  RH WIND       PRES   REMARKS
GREELEY ARPT   SUNNY     41  27  56 CALM      30.04F
AKRON          SUNNY     32  25  75 SW12      30.05F WCI  23
BURLINGTON     SUNNY     43  25  49 W5        30.08F
WRAY           CLOUDY    38  31  74 SW3       30.07F
STERLING       SUNNY     30  25  80 SW10G17   30.06F WCI  21
HOLYOKE        NOT AVBL
FORT MORGAN    SUNNY     30  23  73 W7        30.07F WCI  23
$$

COZ086-089-092>099-192000-
...SOUTHEAST COLORADO...

CITY           SKY/WX    TMP DP  RH WIND       PRES   REMARKS
PUEBLO         SUNNY     45  22  40 NW3       30.07
LA JUNTA       SUNNY     42  28  57 SW6       30.09F
LAMAR          SUNNY     42  31  64 W7        30.09F
SPRINGFIELD      N/A     46  24  42 VRB3      30.07F
$$



USA.gov is the U.S. government's official web portal to all federal, state and local government web resources and services.